Regional Weather Roundup
Issued by NWS Green Bay, WI

Home | Current Version | Previous Version | Text Only | Print | Product List | Glossary On
Versions: 1 2 3 4 5 6 7 8 9 10 11 12 13 14 15 16 17 18 19 20 21 22 23 24 25 26 27 28 29 30 31 32 33 34 35 36 37 38 39 40 41 42 43 44 45 46 47 48 49 50
000
ASUS43 KGRB 231700
RWRGRB

NORTH-CENTRAL AND NORTHEAST WISCONSIN REGIONAL WEATHER ROUNDUP
NATIONAL WEATHER SERVICE GREEN BAY WI
1100 AM CST FRI FEB 23 2018

WIZ005-009-010>012-018-019-231800-
NORTH CENTRAL WISCONSIN

CITY           SKY/WX    TMP DP  RH WIND       PRES   REMARKS
IRONWOOD       CLOUDY    28  24  85 W17       30.00R
MANITOWISH WTR NOT AVBL
ARBOR VITAE    NOT AVBL
EAGLE RIVER    CLOUDY    30  29  96 W10       29.95R
LAND O LAKES   CLOUDY    31  28  88 W7G17     29.96R
RHINELANDER    CLOUDY    32  29  88 W18       29.97S
PHILLIPS       CLOUDY    28  28  96 W7        30.00R
ANTIGO         NOT AVBL
TOMAHAWK       NOT AVBL
MERRILL        CLOUDY    32  31  94 W12       30.01R
$$

WIZ013-073-231800-
NORTHEAST WISCONSIN

CITY           SKY/WX    TMP DP  RH WIND       PRES   REMARKS
IRON MOUNTAIN  CLOUDY    35  31  85 VRB5      29.93F
MARINETTE      CLOUDY    37  36  96 W8        30.01S
$$

WIZ017-030-035>037-045-231800-
CENTRAL WISCONSIN

CITY           SKY/WX    TMP DP  RH WIND       PRES   REMARKS
MEDFORD        NOT AVBL
WAUSAU         CLOUDY    33  29  85 W17       30.01R
MOSINEE        CLOUDY    32  32 100 W15G21    30.04R
MARSHFIELD     CLOUDY    32  29  88 W15G21    30.04R
WISC RAPIDS    CLOUDY    34  29  82 W12G24    30.08R
STEVENS POINT  NOT AVBL
WAUPACA        CLOUDY    38  33  83 SW12G18   30.06R
SHAWANO        CLOUDY    38  35  87 W12G18    30.03R
CLINTONVILLE   CLOUDY    36  32  85 W8G20     30.03S
WAUTOMA        CLOUDY    36  31  82 W16       30.09R
$$

WIZ038-039-048-051-231800-
FOX VALLEY

CITY           SKY/WX    TMP DP  RH WIND       PRES   REMARKS
NWS GREEN BAY  CLOUDY    38  35  89 W14       30.05R
APPLETON       PTSUNNY   36  36 100 W15G24    30.03
OSHKOSH        CLOUDY    37  32  82 W9G20     30.07R
FOND DU LAC    MIX PCPN  37  33  85 W7        30.10R
$$

WIZ022-050-052-231800-
EAST CENTRAL WISCONSIN

CITY           SKY/WX    TMP DP  RH WIND       PRES   REMARKS
EPHRAIM        NOT AVBL
WASHINGTON ISL NOT AVBL
STURGEON BAY   CLOUDY    38  35  89 W16G22    30.01S
MANITOWOC      CLOUDY    39  35  86 W15G24    30.06R
SHEBOYGAN      CLOUDY    37  35  92 W17G23    30.07R
$$

LMZ563-521-522-541>543-231800-
LAKESHORE

STATION/POSITION TIME  TEMP    WIND        PRES    VSBY  WAVE
                       AIR SEA DIR/SP/G                  HT/PER
                 (UTC) (F)     (DEG/KT/KT) (MB)    (MI)  (FT/S)
SHEBOYGAN LKSHOR 1600   37     230/  8/ 10 1018.1R
KEWAUNEE LKSHORE 1630   37     240/  6/ 11 1016.1R
NORTHPORT PIER   1640   37                 1015.6S
SISTER BAY LKSHO 1620   38     240/ 12/ 14   N/A
MENOMINEE LKSHOR 1630   35     230/ 10/ 14 1015.8S
$$




USA.gov is the U.S. government's official web portal to all federal, state and local government web resources and services.